[[{"header":{"parameterUnit":"m.s-1","parameterCategory":1,"la1":30.2991,"la2":30.254,"lo1":-89.0895,"lo2":-89.0444,"dy":0.0017,"dx":0.0017,"nx":28,"ny":28,"refTime":"2024-08-26T09:00:00:Z","depth":0,"parameterNumber":2,"parameterNumberName":"U-component_of_WINDS"},"data":[0,0,0,0,0,0,0,0,0,0,0,0,0,0,0,0,0,0,0,0,0,0,0,0,0,0,0,0,0,0,0,0,0,0,0,0,0,0,0,0,0,0,0,0,0,0,0,0,0,0,0,0,0,0,0,0,0,0,-0.2253,-0.2254,0,-0.2371,-0.2372,-0.2374,-0.2413,-0.2413,-0.2412,-0.2412,-0.2536,-0.254,-0.2544,0,0,0,0,0,0,0,0,0,0,0,0,0,-0.2064,-0.2067,-0.2253,-0.2254,-0.2256,-0.2371,-0.2372,-0.2374,-0.2414,-0.2413,-0.2412,-0.2412,-0.2535,-0.2539,-0.2544,0,0,0,0,0,0,0,0,0,0,0,0,0,-0.2161,-0.2069,-0.2253,-0.2289,-0.2294,-0.237,-0.2372,-0.2374,-0.2414,-0.2413,-0.2412,-0.2411,-0.2533,-0.2539,-0.2545,-0.2594,0,0,-0.2562,-0.2564,0,0,0,0,0,0,0,0,-0.2155,-0.2168,-0.2282,-0.2287,-0.2292,-0.2377,-0.2351,-0.2448,-0.2414,-0.2368,-0.2412,-0.2411,-0.2484,-0.2494,-0.2517,-0.26,-0.2605,-0.2562,-0.2566,-0.2568,-0.257,0,0,0,0,0,0,0,-0.2148,-0.2163,-0.23,-0.2284,-0.229,-0.2301,-0.2314,-0.237,-0.2429,-0.2372,-0.2375,-0.2389,-0.2486,-0.2512,-0.2521,-0.2607,-0.2562,-0.2567,-0.2571,-0.2573,-0.2737,-0.2738,0,0,0,0,0,0,-0.2135,-0.2157,-0.2296,-0.2303,-0.222,-0.2305,-0.2319,-0.235,-0.2428,-0.2439,-0.2389,-0.239,-0.2503,-0.2514,-0.2525,-0.2589,-0.2568,-0.2573,-0.2577,-0.2736,-0.2737,-0.2738,0,0,0,0,0,0,-0.2131,-0.2147,-0.2291,-0.2231,-0.225,-0.2309,-0.2343,-0.2353,-0.2379,-0.2441,-0.2452,-0.2404,-0.2503,-0.2517,-0.2577,-0.2594,-0.2576,-0.2581,-0.2735,-0.2736,-0.2738,-0.2716,0,0,0,0,0,0,-0.2125,-0.2145,-0.2164,-0.2231,-0.2253,-0.234,-0.2344,-0.2356,-0.2388,-0.239,-0.2458,-0.2469,-0.2503,-0.2568,-0.2582,-0.2601,-0.2585,-0.2733,-0.2735,-0.2737,-0.2716,-0.2717,-0.2718,0,0,0,0,0,-0.2118,-0.2154,-0.2165,-0.2182,-0.2278,-0.2341,-0.2353,-0.2391,-0.2389,-0.2409,-0.2449,-0.2467,-0.2589,-0.2574,-0.259,-0.2611,-0.2733,-0.2735,-0.2737,-0.2715,-0.2717,-0.2718,0,0,0,0,0,0,-0.2089,-0.2164,-0.2177,-0.2235,-0.2281,-0.2347,-0.2374,-0.2391,-0.244,-0.244,-0.2486,-0.2501,-0.2557,-0.259,-0.2571,-0.2663,-0.2662,-0.2667,-0.264,-0.2642,-0.2643,-0.2634,-0.259,0,0,0,0,0,-0.2089,-0.2133,-0.2196,-0.2242,-0.2264,-0.2314,-0.2343,-0.2368,-0.2418,-0.2438,-0.2483,-0.2532,-0.2581,-0.2613,-0.2662,-0.272,-0.2736,-0.2743,-0.2744,-0.2744,-0.2749,-0.2782,-0.2786,-0.2745,-0.2745,-0.2745,0,0,-0.2091,-0.2137,-0.2162,-0.2237,-0.2276,-0.2321,-0.2331,-0.2378,-0.2413,-0.2446,-0.2505,-0.2539,-0.2596,-0.2655,-0.2683,-0.2685,-0.2763,-0.2747,-0.2747,-0.2752,-0.2785,-0.2789,-0.2792,-0.2747,-0.2746,-0.2746,0,0,-0.2116,-0.2155,-0.2197,-0.2235,-0.2293,-0.2327,-0.2336,-0.24,-0.2424,-0.2483,-0.2509,-0.2551,-0.2635,-0.2675,-0.2706,-0.2746,-0.2764,-0.276,-0.2766,-0.2798,-0.2801,-0.2805,-0.2819,-0.2824,-0.2765,-0.2765,-0.2765,0,-0.2111,-0.2179,-0.2217,-0.2263,-0.2296,-0.2326,-0.237,-0.2405,-0.2477,-0.2499,-0.2499,-0.2605,-0.2646,-0.2714,-0.2724,-0.2748,-0.2761,-0.2753,-0.2798,-0.2801,-0.2805,-0.2819,-0.2825,-0.2764,-0.2764,-0.2764,-0.2764,0,-0.217,-0.2217,-0.2244,-0.2311,-0.2346,-0.2391,-0.2436,-0.2468,-0.2489,-0.2523,-0.2583,-0.2632,-0.2692,-0.271,-0.2732,-0.2782,-0.2781,-0.2788,-0.2788,-0.2807,-0.2822,-0.2828,-0.2763,-0.2763,-0.2763,-0.2763,0,0,-0.2182,-0.2268,-0.2277,-0.2308,-0.2374,-0.2411,-0.2457,-0.2514,-0.2541,-0.2589,-0.2629,-0.2699,-0.2706,-0.2742,-0.2769,-0.2796,-0.2825,-0.2801,-0.2803,-0.2804,-0.2884,-0.2878,-0.2884,-0.2837,-0.2838,-0.2839,-0.2879,0,-0.2216,-0.2299,-0.2334,-0.2401,-0.2445,-0.2474,-0.2514,-0.2559,-0.2592,-0.2634,-0.267,-0.272,-0.2725,-0.2747,-0.2775,-0.2815,-0.2842,-0.2813,-0.2876,-0.2878,-0.2861,-0.2892,-0.2886,-0.2921,-0.2885,-0.2886,-0.2887,0,-0.2268,-0.2315,-0.2386,-0.2446,-0.2466,-0.2501,-0.2556,-0.2596,-0.2648,-0.267,-0.2708,-0.2734,-0.2784,-0.2779,-0.2849,-0.2829,-0.2856,-0.288,-0.2882,-0.289,-0.2884,-0.2901,-0.2934,-0.2939,-0.2896,-0.2895,-0.2895,0,-0.227,-0.2351,-0.2404,-0.2429,-0.25,-0.2525,-0.2556,-0.2607,-0.2639,-0.2687,-0.2708,-0.2762,-0.2792,-0.2833,-0.2873,-0.2865,-0.2939,-0.2938,-0.296,-0.2959,-0.2975,-0.2973,-0.3013,-0.2991,-0.2991,-0.2991,-0.2991,0,-0.2306,-0.2348,-0.2406,-0.2438,-0.2487,-0.2527,-0.2574,-0.2607,-0.2652,-0.2692,-0.2721,-0.2758,-0.2807,-0.2851,-0.2882,-0.2936,-0.2949,-0.2968,-0.2976,-0.2966,-0.2964,-0.2986,-0.2985,-0.2992,-0.2992,-0.2992,-0.2991,0,-0.2317,-0.2357,-0.2417,-0.2479,-0.2495,-0.2528,-0.2582,-0.2615,-0.2648,-0.2698,-0.2713,-0.2765,-0.2818,-0.2861,-0.293,-0.2951,-0.3008,-0.3016,-0.299,-0.2994,-0.3013,-0.3011,-0.3069,-0.3079,-0.305,-0.305,-0.305,0,-0.2337,-0.237,-0.2436,-0.2464,-0.2494,-0.254,-0.2572,-0.2612,-0.2645,-0.2706,-0.2732,-0.2787,-0.2833,-0.2916,-0.2961,-0.3014,-0.3025,-0.3042,-0.3033,-0.3022,-0.3026,-0.3024,-0.3028,-0.3043,-0.3043,-0.3043,-0.3043,0,-0.237,-0.2388,-0.2433,-0.2485,-0.2522,-0.2565,-0.2609,-0.2631,-0.268,-0.2715,-0.2769,-0.2804,-0.2875,-0.2929,-0.2987,-0.302,-0.304,-0.3045,-0.3053,-0.3043,-0.3027,-0.3037,-0.2993,-0.3044,-0.3044,-0.3044,-0.3044,-0.3043,-0.2387,-0.2417,-0.2468,-0.2517,-0.2554,-0.2594,-0.2628,-0.2665,-0.271,-0.277,-0.2791,-0.2846,-0.2897,-0.2977,-0.301,-0.3054,-0.3056,-0.3068,-0.3071,-0.3073,-0.3072,-0.3019,-0.3065,-0.3065,-0.3065,-0.3065,-0.3065,0,-0.2421,-0.2454,-0.2499,-0.2559,-0.2598,-0.2611,-0.2661,-0.2693,-0.2741,-0.2786,-0.283,-0.2892,-0.2944,-0.2993,-0.3048,-0.3074,-0.3085,-0.3087,-0.3086,-0.3094,-0.3067,-0.3055,-0.3078,-0.3078,-0.3078,-0.3078,-0.3078,-0.3078,-0.2443,-0.2496,-0.252,-0.2591,-0.2625,-0.2678,-0.2705,-0.2743,-0.2779,-0.2846,-0.2889,-0.292,-0.2967,-0.3026,-0.3075,-0.3088,-0.3107,-0.3107,-0.3122,-0.3097,-0.3095,-0.3094,-0.3083,-0.3111,-0.3111,-0.3145,-0.3146,-0.3146]},{"header":{"parameterUnit":"m.s-1","parameterCategory":1,"la1":30.2991,"la2":30.254,"lo1":-89.0895,"lo2":-89.0444,"dy":0.0017,"dx":0.0017,"nx":28,"ny":28,"refTime":"2024-08-26T09:00:00:Z","depth":0,"parameterNumber":3,"parameterNumberName":"V-component_of_WINDS"},"data":[0,0,0,0,0,0,0,0,0,0,0,0,0,0,0,0,0,0,0,0,0,0,0,0,0,0,0,0,0,0,0,0,0,0,0,0,0,0,0,0,0,0,0,0,0,0,0,0,0,0,0,0,0,0,0,0,0,0,-3.1352,-3.1352,0,-3.136,-3.136,-3.136,-3.1291,-3.1289,-3.1287,-3.1285,-3.1291,-3.1293,-3.1295,0,0,0,0,0,0,0,0,0,0,0,0,0,-3.1276,-3.1277,-3.1352,-3.1352,-3.1352,-3.136,-3.136,-3.136,-3.1291,-3.1289,-3.1287,-3.1284,-3.1291,-3.1293,-3.1295,0,0,0,0,0,0,0,0,0,0,0,0,0,-3.1299,-3.1278,-3.1352,-3.1319,-3.1316,-3.136,-3.136,-3.136,-3.1292,-3.1289,-3.1286,-3.1283,-3.129,-3.1293,-3.1296,-3.1371,0,0,-3.1305,-3.1306,0,0,0,0,0,0,0,0,-3.1297,-3.1302,-3.1324,-3.1321,-3.1318,-3.1321,-3.1335,-3.1364,-3.1292,-3.1301,-3.1285,-3.1282,-3.1304,-3.1305,-3.1313,-3.1371,-3.1372,-3.1305,-3.1307,-3.1308,-3.1309,0,0,0,0,0,0,0,-3.1296,-3.1301,-3.1355,-3.1324,-3.1321,-3.1303,-3.1303,-3.134,-3.1318,-3.13,-3.1295,-3.1297,-3.1301,-3.131,-3.1313,-3.1372,-3.1305,-3.1307,-3.1309,-3.131,-3.1492,-3.1495,0,0,0,0,0,0,-3.1299,-3.13,-3.1355,-3.1355,-3.1301,-3.1307,-3.1307,-3.1323,-3.1318,-3.1314,-3.1299,-3.1294,-3.1307,-3.1309,-3.1312,-3.14,-3.1308,-3.1311,-3.1312,-3.1489,-3.1493,-3.1496,0,0,0,0,0,0,-3.1298,-3.1305,-3.1354,-3.1326,-3.1331,-3.1311,-3.133,-3.1325,-3.1334,-3.1317,-3.1313,-3.1313,-3.1305,-3.1308,-3.1357,-3.1399,-3.1312,-3.1315,-3.1485,-3.149,-3.1494,-3.1577,0,0,0,0,0,0,-3.1296,-3.1305,-3.1334,-3.1327,-3.1333,-3.14,-3.1333,-3.1327,-3.1339,-3.1332,-3.1328,-3.1325,-3.1303,-3.1353,-3.136,-3.1402,-3.1317,-3.1481,-3.1487,-3.1493,-3.157,-3.1583,-3.1595,0,0,0,0,0,-3.1293,-3.1356,-3.1335,-3.1342,-3.1369,-3.1402,-3.1405,-3.1379,-3.1343,-3.1371,-3.1361,-3.1325,-3.1394,-3.1359,-3.1366,-3.1409,-3.1479,-3.1486,-3.1492,-3.1564,-3.1581,-3.1595,0,0,0,0,0,0,-3.1367,-3.1355,-3.1332,-3.1394,-3.14,-3.1391,-3.1426,-3.1397,-3.1413,-3.1405,-3.1371,-3.1371,-3.1425,-3.1422,-3.1383,-3.1482,-3.143,-3.1438,-3.1482,-3.1497,-3.151,-3.1509,-3.1319,0,0,0,0,0,-3.1391,-3.1419,-3.1407,-3.1463,-3.1467,-3.1447,-3.146,-3.1439,-3.1443,-3.1445,-3.1438,-3.1443,-3.1466,-3.1481,-3.1501,-3.1569,-3.1567,-3.1603,-3.1615,-3.1625,-3.1633,-3.1669,-3.1684,-3.1519,-3.1519,-3.1519,0,0,-3.1439,-3.1436,-3.1456,-3.1478,-3.148,-3.151,-3.1449,-3.1483,-3.1505,-3.145,-3.1496,-3.1491,-3.1494,-3.1553,-3.1578,-3.1552,-3.1679,-3.1634,-3.1643,-3.1645,-3.1678,-3.1693,-3.1707,-3.1523,-3.1523,-3.1522,0,0,-3.1544,-3.1545,-3.1592,-3.1595,-3.1599,-3.1585,-3.1596,-3.1591,-3.1586,-3.1632,-3.1591,-3.1616,-3.1656,-3.166,-3.1667,-3.1773,-3.1741,-3.1781,-3.1846,-3.1881,-3.1894,-3.1906,-3.1943,-3.1958,-3.1789,-3.1789,-3.1789,0,-3.1604,-3.1648,-3.1619,-3.1657,-3.1667,-3.162,-3.1667,-3.1671,-3.1681,-3.1689,-3.166,-3.1709,-3.1707,-3.1766,-3.1793,-3.18,-3.1812,-3.1781,-3.1895,-3.1906,-3.1916,-3.1952,-3.1966,-3.1794,-3.1793,-3.1793,-3.1792,0,-3.1722,-3.1753,-3.1791,-3.1803,-3.1817,-3.1859,-3.1836,-3.1854,-3.1832,-3.1821,-3.1868,-3.1865,-3.1883,-3.1895,-3.1874,-3.1952,-3.1935,-3.1901,-3.1848,-3.1937,-3.197,-3.1984,-3.1801,-3.1799,-3.1797,-3.1796,0,0,-3.1873,-3.1868,-3.1883,-3.1887,-3.1888,-3.1912,-3.1951,-3.197,-3.1986,-3.1995,-3.2027,-3.2062,-3.203,-3.2038,-3.2017,-3.2048,-3.2132,-3.2009,-3.2009,-3.2032,-3.2217,-3.2243,-3.226,-3.2111,-3.2113,-3.2115,-3.2217,0,-3.1975,-3.2043,-3.2018,-3.2088,-3.2116,-3.2071,-3.2106,-3.211,-3.21,-3.2123,-3.2111,-3.2137,-3.2093,-3.2098,-3.2126,-3.2116,-3.2169,-3.2108,-3.214,-3.2142,-3.2141,-3.2277,-3.2304,-3.2401,-3.223,-3.2232,-3.2234,0,-3.2103,-3.2117,-3.219,-3.2186,-3.2197,-3.2229,-3.2244,-3.2266,-3.2269,-3.226,-3.227,-3.2242,-3.228,-3.2227,-3.2279,-3.2238,-3.225,-3.2246,-3.2249,-3.2251,-3.2193,-3.2283,-3.2431,-3.2445,-3.2254,-3.2252,-3.2251,0,-3.2206,-3.2243,-3.2292,-3.2297,-3.2294,-3.2317,-3.2317,-3.2317,-3.233,-3.2343,-3.2351,-3.2368,-3.2378,-3.2391,-3.2368,-3.2332,-3.2423,-3.2369,-3.2417,-3.2417,-3.2438,-3.2437,-3.259,-3.2446,-3.2445,-3.2445,-3.2445,0,-3.2322,-3.2368,-3.2338,-3.2368,-3.2418,-3.2389,-3.2439,-3.2434,-3.2435,-3.2462,-3.2424,-3.2451,-3.2419,-3.2442,-3.2424,-3.247,-3.2474,-3.2468,-3.2462,-3.2471,-3.2472,-3.2478,-3.2471,-3.2449,-3.2448,-3.2447,-3.2447,0,-3.2446,-3.2427,-3.2477,-3.247,-3.2469,-3.2507,-3.25,-3.2527,-3.2515,-3.255,-3.2557,-3.2538,-3.2563,-3.2542,-3.2566,-3.2554,-3.2615,-3.26,-3.2614,-3.261,-3.2659,-3.2655,-3.2822,-3.2842,-3.2684,-3.2686,-3.2687,0,-3.2521,-3.2556,-3.2553,-3.2569,-3.2571,-3.2597,-3.261,-3.2582,-3.2598,-3.2604,-3.263,-3.2653,-3.2669,-3.2712,-3.27,-3.2719,-3.2704,-3.2761,-3.2706,-3.2714,-3.2705,-3.2703,-3.2706,-3.2772,-3.2774,-3.2776,-3.2777,0,-3.2657,-3.2647,-3.2667,-3.2685,-3.2702,-3.2714,-3.2724,-3.2739,-3.271,-3.2729,-3.2755,-3.2768,-3.2793,-3.2816,-3.2831,-3.2829,-3.2799,-3.2794,-3.2806,-3.2816,-3.2822,-3.282,-3.2644,-3.279,-3.2789,-3.2788,-3.2787,-3.2787,-3.2759,-3.2788,-3.279,-3.2815,-3.2819,-3.2829,-3.2854,-3.2845,-3.2866,-3.2885,-3.2867,-3.2899,-3.2901,-3.2917,-3.292,-3.2944,-3.292,-3.2937,-3.2942,-3.2947,-3.2954,-3.2819,-3.2946,-3.2946,-3.2945,-3.2945,-3.2945,0,-3.2893,-3.2893,-3.2916,-3.293,-3.2949,-3.2919,-3.2928,-3.2945,-3.2974,-3.2979,-3.2996,-3.3026,-3.3048,-3.3038,-3.3056,-3.3078,-3.3064,-3.3083,-3.3082,-3.3082,-3.2974,-3.2962,-3.3094,-3.3094,-3.3094,-3.3094,-3.3094,-3.3094,-3.2966,-3.3013,-3.3002,-3.3051,-3.3049,-3.3081,-3.3088,-3.3097,-3.31,-3.3136,-3.3154,-3.3147,-3.3146,-3.3165,-3.3183,-3.318,-3.3188,-3.3213,-3.3205,-3.3104,-3.3089,-3.3075,-3.3064,-3.3215,-3.3216,-3.331,-3.3311,-3.3312]}]]